Ringgold, VA

7:18 PM EST on February 06, 2016 (GMT -0500)
Danville Regional

Weather History for KDAN - October, 2013

Change the Weather History Date:

Thursday, October 24, 2013

  Actual Average Record
Temperature  
Mean Temperature 45 °F 57 °F  
Max Temperature 58 °F 68 °F 84 °F (1978)
Min Temperature 32 °F 46 °F 28 °F (1987)
Degree Days  
Heating Degree Days 20 9  
Month to date heating degree days 97 137  
Since 1 July heating degree days 121 165  
Cooling Degree Days 0 1  
Month to date cooling degree days 51 31  
Year to date cooling degree days 1413 1434  
Moisture  
Dew Point 31 °F    
Average Humidity 62    
Maximum Humidity 89    
Minimum Humidity 35    
Precipitation  
Precipitation 0.00 in 0.11 in 2.85 in (2007)
Month to date precipitation 1.20 2.76  
Year to date precipitation 43.66 37.01  
Snow  
Snow 0.00 in - - ()
Month to date snowfall 0.0  
Since 1 July snowfall 0.0  
Since 1 September snowfall 0.0  
Snow Depth 0.00 in    
Sea Level Pressure  
Sea Level Pressure 30.10 in    
Wind  
Wind Speed 6 mph (West)    
Max Wind Speed 17 mph    
Max Gust Speed 23 mph    
Visibility 10 miles    
Events      
T = Trace of Precipitation, MM = Missing Value Source: NWS Daily Summary

Daily Weather History Graph

Daily Weather History Graph

Search for Another Location

Airport or City:

Trip Planner

Search our weather history database for the weather conditions in past years. The results will help you decide how hot, cold, wet, or windy it might be!

Date:

Astronomy

Oct. 24, 2013 Rise Set
Actual Time 7:33 AM EDT 6:29 PM EDT
Civil Twilight 7:06 AM EDT 6:55 PM EDT
Nautical Twilight 6:36 AM EDT 7:25 PM EDT
Astronomical Twilight 6:06 AM EDT 7:55 PM EDT
Moon 10:55 PM EDT (10/24) 12:29 PM EDT (10/24)
Length of Visible Light 11h 48m
Length of Day
10h 56m
Waning Gibbous, 71% of the Moon is Illuminated
Oct 24
Waning Gibbous
Oct 26
Last Quarter
Nov 3
New
Nov 10
First Quarter
Nov 17
Full

Hourly Weather History & Observations

Time (EDT) Temp. Windchill Dew Point Humidity Pressure Visibility Wind Dir Wind Speed Gust Speed Precip Events Conditions
12:53 AM 43.0 °F 38.8 °F 32.0 °F 65% 30.02 in 10.0 mi WNW 6.9 mph - N/A   Clear
1:53 AM 42.1 °F 37.7 °F 30.9 °F 65% 30.03 in 10.0 mi WNW 6.9 mph - N/A   Clear
2:53 AM 41.0 °F - 32.0 °F 70% 30.03 in 10.0 mi Calm Calm - N/A   Clear
3:53 AM 39.0 °F 35.7 °F 32.0 °F 76% 30.04 in 10.0 mi West 4.6 mph - N/A   Clear
4:53 AM 36.0 °F 31.1 °F 30.0 °F 79% 30.06 in 10.0 mi WSW 5.8 mph - N/A   Clear
5:53 AM 36.0 °F 33.3 °F 30.0 °F 79% 30.08 in 10.0 mi SW 3.5 mph - N/A   Clear
6:53 AM 33.1 °F 28.7 °F 30.0 °F 89% 30.10 in 10.0 mi SSW 4.6 mph - N/A   Clear
7:53 AM 33.1 °F 30.0 °F 30.0 °F 89% 30.11 in 10.0 mi SW 3.5 mph - N/A   Clear
8:53 AM 37.9 °F 35.5 °F 33.1 °F 83% 30.13 in 10.0 mi SSW 3.5 mph - N/A   Clear
9:53 AM 46.0 °F 43.1 °F 34.0 °F 63% 30.13 in 10.0 mi West 5.8 mph - N/A   Clear
10:53 AM 50.0 °F - 30.9 °F 48% 30.13 in 10.0 mi WSW 11.5 mph - N/A   Clear
11:53 AM 52.0 °F - 30.0 °F 43% 30.12 in 10.0 mi West 12.7 mph 20.7 mph N/A   Clear
12:53 PM 53.1 °F - 32.0 °F 45% 30.11 in 10.0 mi West 6.9 mph - N/A   Overcast
1:53 PM 55.0 °F - 30.9 °F 40% 30.07 in 10.0 mi WNW 6.9 mph 20.7 mph N/A   Overcast
2:53 PM 55.0 °F - 28.9 °F 37% 30.07 in 10.0 mi NW 12.7 mph 18.4 mph N/A   Partly Cloudy
3:53 PM 55.0 °F - 30.0 °F 38% 30.07 in 10.0 mi NNW 11.5 mph 19.6 mph N/A   Overcast
4:53 PM 54.0 °F - 28.9 °F 38% 30.07 in 10.0 mi NW 9.2 mph - N/A   Mostly Cloudy
5:53 PM 54.0 °F - 30.0 °F 40% 30.09 in 10.0 mi NW 8.1 mph - N/A   Overcast
6:53 PM 51.1 °F - 30.9 °F 46% 30.13 in 10.0 mi NW 5.8 mph - N/A   Overcast
7:53 PM 48.0 °F - 30.9 °F 52% 30.15 in 10.0 mi WNW 4.6 mph - N/A   Partly Cloudy
8:53 PM 44.1 °F 42.5 °F 30.9 °F 60% 30.17 in 10.0 mi West 3.5 mph - N/A   Clear
9:53 PM 44.1 °F 41.5 °F 30.9 °F 60% 30.18 in 10.0 mi NW 4.6 mph - N/A   Clear
10:53 PM 36.0 °F - 30.9 °F 82% 30.18 in 10.0 mi Calm Calm - N/A   Clear
11:53 PM 37.0 °F - 32.0 °F 82% 30.19 in 10.0 mi Calm Calm - N/A   Mostly Cloudy